Das Wetter in  D-61279 Heinzenberg / Taunus





Wetter Minimum- & Maximum-Werte im September 2014

Standort: Heinzenberg / Taunus - Höhe 297 m         8 24' 1" Ost 50 21' 51" Nord
(   3-stündige Aktualisierung    letzte Aktualisierung um 19:04 am 30.09.2014  )


Messgrösse

Minimum

Maximum

Durchschnitt

Temperatur West /
Luftfeuchte West
Anklicken für Monats-Diagramm

4,5 C

04:56
23.09.2014

52 %

13:43
09.09.2014

27,6 C

17:50
06.09.2014

93 %

10:14
16.09.2014

Temp

15,1 C

Feuchte

81 %

Temperatur Ost /
Luftfeuchte Ost
Anklicken für Monats-Diagramm

4,5 C

05:01
23.09.2014

--

--
--

25,8 C

17:50
06.09.2014

--

--
--

15,0 C

--

Luftdruck Anklicken für Monats-Diagramm

1009,6 hPa

18:05
06.09.2014

1028,8 hPa

09:00
27.09.2014

1018,4 hPa

Taupunkt

2,7 C

04:56
23.09.2014

18,6 C

17:50
06.09.2014

11,7 C

Windchill
( gefühlte Temperatur )

-1,0 C

14:40
22.09.2014

27,6 C

17:50
06.09.2014

14,5 C

Windgeschwindigkeit /
Windrichtung
Anklicken für Monats-Diagramm

---

40,3 km/h / W-NW

14:10
22.09.2014

3,8 km/h
W

Helligkeit /
Sonnenschein
Anklicken für Monats-Diagramm
Anklicken für Monats-Diagramm

Sonnenschein:

97:33 Stunden

Max: 10:00 Std am
17.09.2014

99,6 klux

13:26
02.09.2014

22 klux

Solarstrahlung Anklicken für Monats-Diagramm

---

681 W/m

13:26
02.09.2014

160 W/m

Regenmenge
    September 2014
Anklicken für Monats-Diagramm

Insgesamt 33,9 l/m

in 25:27 Stunden
an 15 Tagen

6,8 l/m

20:05
06.09.2014

Gesamtmenge

33,9 l/m

Regen-Tage
    September 2014
Anklicken für Monats-Diagramm

>   0 mm/Tag

>   2 mm/Tag

>   5 mm/Tag

> 10 mm/Tag

> 20 mm/Tag

15 Tage     
5 Tage     
3 Tage     
0 Tage     
0 Tage     

Eisige Tage September 2014 / 2013

Tmin ≤ -10C     

0 Tage

/

0 Tage

Eistage September 2014 / 2013

Tmax <     0C     

0 Tage

/

0 Tage

Frosttage September 2014 / 2013

Tmin ≤     0C     

0 Tage

/

0 Tage

Kalte Tage September 2014 / 2013

Tmax <   10C     

0 Tage

/

0 Tage

Warme Tage September 2014 / 2013

Tmax ≥   20C     

16 Tage

/

8 Tage

Sommertage September 2014 / 2013

Tmax ≥   25C     

4 Tage

/

3 Tage

Heisse Tage September 2014 / 2013

Tmax ≥   30C     

0 Tage

/

2 Tage


Monatsdiagramm September 2014

Die Kurven zeigen den Durchschnittswert des jeweiligen Tages an


Wetter-Monatsübersicht September 2014
Datum
  Temperatur
   Luftdruck
   Wind
  Regen
   Luftfeuchte
   Helligkeit

Sonnen-
schein


Temp.

Min.
Temp.

Max.
Temp.


Luftdruck

Min.
Luftdruck

Max.
Luftdruck

-Geschw.
Haupt-Richtg.

Max.
Wind

Menge /
Dauer


Feuchte

Min.
Feuchte

Max.
Feuchte


Helligkeit

Max.
Helligkeit

1.
September
13,4 C10,5 C
06:20
16,4 C
16:30
1019,9 hPa1016,6 hPa
00:00
1021,7 hPa
23:56
6,1 km/h
W
21,2 km/h
14:40  
---
82 %71 %
15:35
90 %
06:35
17,1 klux44,7 klux
16:10
1:00 Std 
2.
September
14,5 C9,2 C
05:36
20,6 C
13:36
1021,5 hPa1020,8 hPa
13:36
1023,4 hPa
23:07
2,5 km/h
NO
17,3 km/h
13:01  
---
79 %59 %
13:26
91 %
09:56
24,8 klux99,6 klux
13:26
3:05 Std 
3.
September
14,7 C11,7 C
05:57
17,0 C
16:22
1022,1 hPa1021,2 hPa
16:22
1022,9 hPa
05:57
5,3 km/h
NO
18,1 km/h
11:07  
---
80 %73 %
10:37
87 %
06:07
15 klux55 klux
10:12
1:35 Std 
4.
September
15,9 C12,8 C
03:23
19,9 C
16:13
1018,6 hPa1016,2 hPa
22:24
1021,5 hPa
00:43
1,9 km/h
NO
18,4 km/h
12:53  
---
82 %73 %
15:03
88 %
07:43
12,6 klux52,4 klux
15:38
5 Min 
5.
September
18,1 C13,2 C
04:49
24,3 C
17:44
1014,5 hPa1012,1 hPa
17:59
1016,4 hPa
03:34
1,4 km/h
W-NW
13,1 km/h
12:04  
---
15 Minuten
82 %69 %
16:19
91 %
08:14
24,9 klux72,4 klux
13:09
3:05 Std 
6.
September
18,5 C12,4 C
07:20
27,6 C
17:50
1012,6 hPa1009,6 hPa
18:05
1014,3 hPa
03:55
2,5 km/h
W-NW
21,9 km/h
20:00  
6,8 l/m
40 Minuten
79 %56 %
16:20
91 %
08:55
31,9 klux70,6 klux
13:15
7:10 Std 
7.
September
18,0 C14,8 C
05:41
22,8 C
17:21
1014,0 hPa1013,0 hPa
00:01
1016,3 hPa
23:47
4,6 km/h
W-NW
18,8 km/h
13:31  
---
81 %64 %
16:21
92 %
09:21
29,6 klux74,5 klux
13:51
5:50 Std 
8.
September
17,4 C13,0 C
07:42
23,8 C
17:27
1016,7 hPa1015,2 hPa
17:27
1018,5 hPa
23:58
1,7 km/h
N-NW
12,5 km/h
15:17  
---
77 %58 %
15:22
90 %
08:52
28,9 klux68,2 klux
13:42
4:20 Std 
9.
September
15,1 C9,5 C
07:38
22,7 C
17:48
1018,8 hPa1017,4 hPa
17:48
1020,0 hPa
07:38
2,3 km/h
NW
15,3 km/h
16:13  
---
74 %52 %
13:43
90 %
09:03
34,0 klux70,7 klux
14:38
7:00 Std 
10.
September
13,1 C10,2 C
02:39
16,3 C
14:14
1018,6 hPa1017,2 hPa
18:04
1019,9 hPa
02:39
2,6 km/h
N
14,8 km/h
15:39  
---
77 %65 %
17:14
86 %
07:19
14,2 klux34,0 klux
09:44
5 Min 
11.
September
12,5 C9,6 C
05:55
17,8 C
12:25
1017,4 hPa1015,9 hPa
12:25
1020,0 hPa
23:46
2,8 km/h
N
22,0 km/h
18:20  
4,7 l/m
3:20 Stunden
83 %69 %
18:15
89 %
09:15
21,3 klux90,6 klux
13:50
2:45 Std 
12.
September
12,2 C8,0 C
03:46
16,8 C
13:26
1019,2 hPa1017,1 hPa
13:26
1020,5 hPa
23:52
2,4 km/h
N
23,5 km/h
12:51  
4,3 l/m
4:50 Stunden
87 %70 %
13:41
91 %
08:56
10,7 klux40,0 klux
12:21
--- 
13.
September
15,4 C14,2 C
06:02
17,2 C
14:32
1021,6 hPa1019,4 hPa
00:37
1022,5 hPa
21:12
3,0 km/h
N-NO
17,7 km/h
15:02  
---
86 %81 %
15:17
90 %
00:02
8,6 klux28,2 klux
09:27
--- 
14.
September
16,8 C12,8 C
23:58
23,9 C
17:58
1019,7 hPa1017,3 hPa
17:58
1022,5 hPa
01:38
2,7 km/h
NO
14,6 km/h
10:23  
---
81 %60 %
18:23
89 %
02:13
18,6 klux73,8 klux
15:33
3:30 Std 
15.
September
15,9 C11,4 C
01:53
21,2 C
12:18
1016,9 hPa1015,6 hPa
15:43
1018,8 hPa
01:53
2,4 km/h
SO
24,3 km/h
12:13  
---
10 Minuten
83 %69 %
12:08
90 %
08:29
17,4 klux76,8 klux
12:08
1:19 Std 
16.
September
17,2 C11,2 C
07:19
25,1 C
18:19
1015,5 hPa1013,0 hPa
18:34
1016,7 hPa
07:19
5,8 km/h
SO
28,2 km/h
12:09  
---
77 %57 %
17:24
93 %
10:14
35,0 klux75,0 klux
13:29
8:50 Std 
17.
September
17,0 C10,0 C
07:15
25,7 C
17:30
1013,1 hPa1010,9 hPa
17:30
1015,5 hPa
01:15
4,6 km/h
SO
23,3 km/h
14:40  
---
75 %53 %
17:15
90 %
09:40
34,6 klux62,0 klux
13:40
10:00 Std 
18.
September
17,1 C12,4 C
03:51
25,4 C
17:46
1011,8 hPa1009,9 hPa
17:21
1012,4 hPa
03:51
2,0 km/h
W-NW
17,6 km/h
17:46  
1,5 l/m
2:25 Stunden
82 %63 %
17:21
92 %
11:01
21,7 klux58,8 klux
11:31
2:10 Std 
19.
September
18,3 C14,3 C
07:32
23,3 C
17:07
1012,3 hPa1010,9 hPa
03:47
1014,1 hPa
23:53
2,5 km/h
W-SW
18,6 km/h
17:27  
1,1 l/m
1:05 Stunden
84 %71 %
17:17
92 %
09:42
21,0 klux63,6 klux
13:57
2:25 Std 
20.
September
17,4 C13,9 C
06:18
23,6 C
13:58
1014,2 hPa1013,2 hPa
13:58
1015,2 hPa
23:59
3,8 km/h
NW
18,6 km/h
19:43  
6,7 l/m
1:00 Stunden
84 %69 %
14:03
92 %
10:13
25,3 klux74,6 klux
13:48
3:40 Std 
21.
September
14,8 C10,9 C
23:55
16,7 C
13:04
1015,2 hPa1014,0 hPa
13:04
1018,8 hPa
23:55
4,9 km/h
W-NW
25,0 km/h
13:54  
5,8 l/m
6:55 Stunden
90 %85 %
19:19
92 %
06:59
8,9 klux39,4 klux
16:09
10 Min 
22.
September
10,8 C7,7 C
23:51
14,8 C
18:10
1019,1 hPa1016,4 hPa
13:35
1021,3 hPa
23:51
12,3 km/h
W-NW
40,3 km/h
14:10  
2,0 l/m
1:15 Stunden
83 %65 %
17:10
91 %
03:15
21,0 klux80,2 klux
13:25
4:35 Std 
23.
September
9,3 C4,5 C
04:56
16,4 C
17:46
1021,4 hPa1018,2 hPa
18:06
1023,6 hPa
07:46
1,8 km/h
W
10,6 km/h
13:11  
---
79 %60 %
16:06
91 %
09:06
28,4 klux74,2 klux
12:31
5:45 Std 
24.
September
9,7 C4,7 C
07:07
15,0 C
17:37
1014,5 hPa1011,1 hPa
17:37
1019,5 hPa
01:47
5,5 km/h
W-SW
30,5 km/h
22:02  
---
16 Minuten
80 %67 %
13:47
89 %
08:52
22,1 klux76,2 klux
13:37
1:30 Std 
25.
September
12,7 C10,5 C
04:48
16,7 C
15:33
1018,5 hPa1012,5 hPa
00:03
1022,8 hPa
22:13
11,4 km/h
W
25,4 km/h
15:38  
0,2 l/m
40 Minuten
81 %67 %
15:43
89 %
07:28
21,3 klux74,1 klux
12:03
2:15 Std 
26.
September
13,9 C11,6 C
07:09
17,0 C
14:44
1024,2 hPa1022,7 hPa
02:04
1026,7 hPa
23:50
7,6 km/h
W-SW
20,6 km/h
15:14  
0,3 l/m
45 Minuten
80 %74 %
14:59
88 %
22:40
11,3 klux53,6 klux
13:39
5 Min 
27.
September
15,7 C11,2 C
23:46
22,4 C
18:00
1027,5 hPa1026,7 hPa
00:00
1028,8 hPa
09:00
1,6 km/h
SO
15,1 km/h
14:35  
---
80 %58 %
14:25
91 %
05:30
28,0 klux74,5 klux
14:15
6:05 Std 
28.
September
14,2 C7,6 C
07:46
22,1 C
17:41
1025,2 hPa1022,7 hPa
17:41
1028,3 hPa
02:26
3,6 km/h
SO
19,0 km/h
11:46  
---
79 %64 %
17:21
90 %
09:21
28,2 klux55,8 klux
13:21
5:55 Std 
29.
September
15,6 C9,9 C
06:17
23,2 C
15:27
1023,8 hPa1022,5 hPa
15:27
1025,0 hPa
09:52
2,5 km/h
W-NW
25,1 km/h
14:17  
0,6 l/m
1:46 Stunden
80 %58 %
14:17
90 %
09:57
24,5 klux77,5 klux
13:57
2:55 Std 
30.
September
16,6 C14,2 C
07:58
19,4 C
14:23
1024,9 hPa1023,4 hPa
01:23
1026,6 hPa
23:59
1,0 km/h
NW
16,3 km/h
14:13  
---
5 Minuten
84 %73 %
14:48
90 %
08:43
12,9 klux52,6 klux
13:22
24 Min 



September
2014

Temperatur

  

Luftdruck

  

Wind

  

Regen

  

Luftfeuchte

  

Helligkeit

Sonnen-
schein

Min

Max

Min

Max

Max

Max

Min

Max

Max

Max

15,1 C

4,5 C

04:56 Uhr
23.09.2014

27,6 C

17:50 Uhr
06.09.2014

1018,4 hPa

1009,6 hPa

18:05 Uhr
06.09.2014

1028,8 hPa

09:00 Uhr
27.09.2014

3,8 km/h

W

40,3 km/h

14:10 Uhr
22.09.2014

6,8 l/m

40 Minuten
06.09.2014

81 %

52 %

13:43 Uhr
09.09.2014

93 %

10:14 Uhr
16.09.2014

21,8 klux

99,6 klux

13:26 Uhr
02.09.2014

10:00 Std

am
17.09.2014

Gesamt

Gesamt

33,9 l/m

15 Tage
25:27 h

97:33 Std


Wetter-Diagramme September 2014     Heinzenberg / Taunus   
TemperaturLuftfeuchte
SolarstrahlungLuftdruck
HelligkeitSonnenschein
RegenmengeRegendauer
Wind-GeschwindigkeitWind-Richtung